FENGYUN 2F DEB

基本信息
目录编号:
43396
目录名称:
FENGYUN 2F DEB
国际标识:
2012-002D
轨道中心:
EARTH
物体状态:
在轨
发射日期:
2012-01-13 UTC
轨道信息
数据来源: 国际轨道数据
星历时间: 2026-07-13T08:38:17+0800
半长轴: 42164.616km
偏心率: 0.0260078
轨道倾角: 9.168°
近地点辐角: 307.305°
升交点赤经: 57.123°
平近点角: 50.346°
近地点: 34689.87km
远地点: 36883.088km
周期: 1436.091分钟
每日圈数: 1.002722
详细信息
发射场:
XSC
轨道高度:
MEO
数据来源:
AOE Integration Group
参考系:
TEME
时间系统:
UTC
历元类型:
SGP4
2D轨道图
3D轨道图
轨道高度分析图
轨道倾角分析图
轨道综合分析图
查看轨道综合分析图